Regional Weather Roundup
Issued by NWS

Home | Current Version | Previous Version | Text Only | Print | Product List | Glossary On
Versions: 1 2 3 4 5 6 7 8 9 10 11 12 13 14 15 16 17 18 19 20 21 22 23 24 25 26 27 28 29 30 31 32 33 34 35 36 37 38 39 40 41 42 43 44 45 46 47 48 49 50
000
ASHW40 PHFO 161543
RWRHI

WEATHER ROUNDUP FOR HAWAII
NATIONAL WEATHER SERVICE HONOLULU HI
500 AM HST WED APR 16 2014

THIS IS AN AUTOMATED REPORT THAT HAS NOT BEEN QUALITY CONTROLLED.

NOTE..."FAIR" INDICATES FEW OR NO CLOUDS BELOW 12,000 FEET WITH NO
SIGNIFICANT WEATHER AND/OR OBSTRUCTIONS TO VISIBILITY.

* - THESE SITES REPORT LIMITED FIELDS

HIZ001>004-161600-
KAUAI-NIIHAU-

CITY           SKY/WX    TMP DP  RH WIND       PRES   REMARKS
LIHUE APT      MOCLDY    70  66  88 N17       30.12S
PORT ALLEN*      N/A     70 N/A N/A E6          N/A
POIPU*           N/A     70 N/A N/A NE7G15      N/A
PRINCEVILLE*   NOT AVBL
KOKOLE POINT*    N/A     68  59  73 MISG        N/A
MOLOAA DAIRY*  NOT AVBL
WAIMEA HTS*      N/A     66  57  72 NW3         N/A
PUU OPAE*        N/A     61  54  77 CALM        N/A
PUU LUA*       NOT AVBL
MAKAHA RIDGE*    N/A     63  59  88 W2G14       N/A
$$

HIZ005>011-161600-
OAHU-

CITY           SKY/WX    TMP DP  RH WIND       PRES   REMARKS
HONOLULU       PTCLDY    73  61  65 NE7       30.06R
KALAELOA       CLEAR     67  61  81 VRB3      30.08R
KANEOHE MCB    PTCLDY    70  61  73 NE12G20   30.08S
WHEELER FIELD  LGT RAIN  68  61  77 N10       30.09R
BELLOWS*       NOT AVBL
KAHUKU*          N/A    N/A N/A N/A NE6G13      N/A
WHEELER*       NOT AVBL
WAIANAE HARBOR NOT AVBL
DILLINGHAM*    NOT AVBL
KAHUKU TRN*      N/A     70  68  94 E12G23      N/A
KAWAILOA*      NOT AVBL
KII*             N/A     73  64  73 NE16G22     N/A
MAKUA RANGE*     N/A     72  66  83 E16G28      N/A
OAHU FOREST NW   N/A     63  63 100 N18G33      N/A
SCHOFIELD BRK* NOT AVBL
SCHOFIELD S*     N/A     63 N/A N/A CALM        N/A
WAIANAE VLY*     N/A     68  59  73 N10G30      N/A
KUAOKALA*        N/A     68  61  77 NE26G37     N/A
HONOULIUULI*   NOT AVBL
MOKUOLOE IS*     N/A    N/A N/A N/A MISG        N/A
PALEHUA*         N/A     73  63  68 CALM        N/A
WAIAWA PHB*    NOT AVBL
$$

HIZ012>013-161600-
MOLOKAI-

CITY           SKY/WX    TMP DP  RH WIND       PRES   REMARKS
MOLOKAI AIRPT  PTCLDY    70  67  90 NE13G21   30.06S
KALAUPAPA      NOT AVBL
MAKAPULAPAI*     N/A     72  64  78 E16G22      N/A
MOLOKAI 1*       N/A     61  59  94 N12G26      N/A
PUU ALII*        N/A     53  53  99 E3G12       N/A
$$

HIZ016-161600-
KAHOOLAWE-

CITY           SKY/WX    TMP DP  RH WIND       PRES   REMARKS
KAHOOLAWE*       N/A     66 N/A N/A N5G10       N/A
HAKIOAWA*        N/A     66  62  87 MISG      30.17R
HONOKANAIA*      N/A     73  64  73 N12G18    30.05R
KANELOA*       NOT AVBL
KEALIALALO*      N/A    N/A N/A N/A E6G23     30.34S
LUA MAKIKA*    NOT AVBL
$$

HIZ014>015-161600-
LANAI-

CITY           SKY/WX    TMP DP  RH WIND       PRES   REMARKS
LANAI CITY     FAIR      67  64  90 NE25      30.08R
LANAI 1*         N/A     66  66 100 NE26G40     N/A
$$

HIZ017>028-161600-
MAUI-

CITY           SKY/WX    TMP DP  RH WIND       PRES   REMARKS
KAHULUI        LGT RAIN  70  66  87 NE10      30.06R
KAPALUA-W MAUI NOT AVBL
HANA AIRPORT   NOT AVBL
HANA*            N/A     73 N/A N/A NE12G17     N/A
HALEAKALA SUMM   N/A     37  19  48 E24G47      N/A  WCI  26
MAALAEA BAY*   NOT AVBL
HALEAKALA*     NOT AVBL
KAUPO GAP*       N/A     61  50  67 N12G32      N/A
KULA 1*          N/A     46  36  66 CALM        N/A
$$

HIZ023>026-161600-
BIG ISLAND OF HAWAII COAST AND LOWER SLOPES-

CITY           SKY/WX    TMP DP  RH WIND       PRES   REMARKS
KAILUA KONA    PTCLDY    73  63  70 SE8       29.99R
HILO           LGT RAIN  66  66 100 W8        30.05S
HONOKAA*       NOT AVBL
KAWAIHAE MWT*    N/A     75 N/A N/A SW6G12      N/A
KAWAIHAE*        N/A     73 N/A N/A SE12        N/A
SOUTH POINT*     N/A     68 N/A N/A NE15G23     N/A
UPOLU AIRPORT*   N/A    N/A N/A N/A NE22G28     N/A
KAMUELA*       CLOUDY    59  59 100 NE15      30.12R
HAKALAU*         N/A     43  39  87 W3G10       N/A
KALOKO-HONOKO*   N/A     70  59  68 NE7       29.99R
PALI 2*          N/A     63  52  67 N13G26      N/A
KEALAKOMO*       N/A     73  57  56 VRB18G31    N/A
KAUPULEHU*       N/A     64  52  63 SW6         N/A
KAPAPALA*        N/A     57  52  82 W2          N/A
LOWER KAHUKU*  NOT AVBL
PUHE CS*       NOT AVBL
PUHO CS*         N/A     69  54  58 E3          N/A
PTA KEAMUKU*     N/A     55  48  76 S12         N/A
WAIKOLOA*        N/A     64  52  63 E9          N/A
$$

HIZ027>028-161600-
BIG ISLAND OF HAWAII INTERIOR AND SUMMMITS-

CITY           SKY/WX    TMP DP  RH WIND       PRES   REMARKS
BRADSHAW FIELD CLOUDY    46  38  73 E7        30.29S
MK VISITOR CEN NOT AVBL
MAUNA KEA*       N/A     34 -22   8 E23         N/A  WCI  22
MAUNA LOA*       N/A     43 -27   4 MISG        N/A
MAUNA LOA 1*     N/A    N/A N/A N/A MISG        N/A
PTA KIPUKA*      N/A     52  46  82 E3G21       N/A
PTA RANGE 17*    N/A     52  45  76 E12G23      N/A
PTA WEST*        N/A    N/A N/A N/A SE8         N/A
NENE CABIN*    NOT AVBL
AHUMOA*          N/A     46  39  76 E2G10       N/A
PTA PORTABLE*  NOT AVBL
PUU MALI*      NOT AVBL
$$

HIC003-161600-
NORTHWEST ISLANDS-

CITY           SKY/WX    TMP DP  RH WIND       PRES   REMARKS
MIDWAY ISLAND  MOCLDY    72  72 100 S12         N/A
MIDWAY NOS*    NOT AVBL
FRENCH FRIGATE NOT AVBL
$$

PHZ110>124-180-161600-
BUOY REPORTS

STATION/POSITION TIME  TEMP    WIND        PRES    WAVE   SWELL
                       AIR SEA DIR/SP/G            HT/PER HT/DIR
                 (UTC) (F)     (DEG/KT/KT) (MB)    (FT/S) (FT/D)
BUOY 51001       NOT AVBL
BUOY 51101       1500   71 73   80/ 17/ 21 1020.3F   7/ 8   5/100
BUOY 51100       1400   72 73   70/ 16/ 17 1018.9F
BUOY 51003       1500   76 78   50/ 19/ 23 1016.0R   9/ 8   5
BUOY 51004       1400   77 77   80/ 14/ 17 1014.3S
BARBERS PT BUOY  NOT AVBL
WAIMEA BAY BUOY  1500      75                N/A     6/ 9   2/ 40
KAILUA BAY BUOY  1500      74                N/A    10/11   5/ 80
LANAI BUOY       1500      77                N/A     3/ 4   2/200
BARBERS PT 2     1500      76                N/A     3/ 6   2/180
PAUWELA MAUI     NOT AVBL
HILO             1500      77                N/A     9/11   5/ 60
KANEOHE BAY BUOY 1500      74                N/A    10/10   3/ 60
HANALEI KAUAI    1500      76                N/A     8/ 9   2/ 60
KAHULUI HARBOR   1500   74 76   60/ 14/ 19 1017.8R
HONOLULU HARBOR  1500   73      80/  5/  9 1018.3R
KILO NALU        NOT AVBL
HILO HARBOR      1500   68 76  250/  8/ 11 1017.3R
MOKUOLOE         1500   73 73   60/ 11/ 14 1018.9R
NAWILIWILI       1500      76                N/A
WHOTS BUOY       NOT AVBL
BUOY 51028       NOT AVBL
$$

......................KEY........................................
  SKY/WX - SKY CONDITIONS/PRESENT WEATHER
  TMP    - TEMPERATURE IN FAHRENHEIT
  DWPT   - DEWPOINT IN FAHRENHEIT
  RH     - RELATIVE HUMIDITY IN PERCENT
  WIND   - DIRECTION AND SPEED /MPH FOR ISLANDS...KTS FOR BUOYS/
  PRES   - MEAN SEA LEVEL PRESSURE IN INCHES OF HG
  VSB    - VISIBILITY IN MILES
  HX     - HEAT INDEX
  WCI    - WIND CHILL INDEX
  VRB    - VARIABLE WIND DIRECTION
  N/A    - NOT AVAILABLE



USA.gov is the U.S. government's official web portal to all federal, state and local government web resources and services.